TimeMDT,TemperatureF,Dew PointF,Humidity,Sea Level PressureIn,VisibilityMPH,Wind Direction,Wind SpeedMPH,Gust SpeedMPH,PrecipitationIn,Events,Conditions,WindDirDegrees,DateUTC
12:53 AM,52.0,46.9,83,29.87,10.0,SE,5.8,-,N/A,,Clear,130,2012-10-09 06:53:00
1:53 AM,51.8,46.4,82,29.97,10.0,SSE,3.5,-,N/A,,Clear,150,2012-10-09 07:53:00
2:53 AM,48.0,45.0,89,29.87,10.0,Calm,Calm,-,N/A,,Clear,0,2012-10-09 08:53:00
3:53 AM,46.9,44.1,90,29.86,10.0,Calm,Calm,-,N/A,,Clear,0,2012-10-09 09:53:00
4:53 AM,46.0,44.1,93,29.87,10.0,Calm,Calm,-,N/A,,Clear,0,2012-10-09 10:53:00
5:53 AM,45.0,43.0,93,29.88,10.0,Calm,Calm,-,N/A,,Clear,0,2012-10-09 11:53:00
6:53 AM,46.0,44.1,93,29.91,10.0,NNE,6.9,-,N/A,,Clear,20,2012-10-09 12:53:00
7:53 AM,50.0,46.9,89,29.92,10.0,NNE,5.8,-,N/A,,Clear,20,2012-10-09 13:53:00
8:53 AM,57.0,48.0,72,29.94,10.0,North,4.6,-,N/A,,Clear,10,2012-10-09 14:53:00
9:53 AM,62.1,48.0,60,29.94,10.0,Calm,Calm,-,N/A,,Clear,0,2012-10-09 15:53:00
10:53 AM,69.1,48.0,47,29.92,10.0,Calm,Calm,-,N/A,,Clear,0,2012-10-09 16:53:00
11:53 AM,77.0,46.9,34,29.89,10.0,Calm,Calm,-,N/A,,Clear,0,2012-10-09 17:53:00
12:53 PM,84.0,39.9,21,29.85,10.0,East,5.8,-,N/A,,Clear,80,2012-10-09 18:53:00
1:53 PM,86.0,39.0,19,29.82,10.0,East,6.9,-,N/A,,Clear,90,2012-10-09 19:53:00
2:53 PM,87.1,37.0,17,29.81,10.0,East,5.8,-,N/A,,Clear,100,2012-10-09 20:53:00
3:53 PM,89.1,28.9,12,29.79,10.0,SSW,11.5,18.4,N/A,,Clear,210,2012-10-09 21:53:00
4:53 PM,88.0,30.0,12,29.79,10.0,SW,10.4,-,N/A,,Clear,230,2012-10-09 22:53:00
5:53 PM,82.9,37.0,19,29.80,10.0,SW,4.6,-,N/A,,Clear,230,2012-10-09 23:53:00
6:53 PM,71.1,44.1,38,29.83,10.0,SW,8.1,-,N/A,,Clear,230,2012-10-10 00:53:00
7:53 PM,66.0,42.1,42,29.86,10.0,SW,5.8,-,N/A,,Clear,230,2012-10-10 01:53:00
8:53 PM,64.0,42.1,45,29.87,10.0,West,6.9,-,N/A,,Clear,280,2012-10-10 02:53:00
9:53 PM,62.1,41.0,46,29.88,10.0,West,6.9,-,N/A,,Clear,270,2012-10-10 03:53:00
10:53 PM,63.0,39.0,41,29.87,10.0,WSW,8.1,-,N/A,,Clear,250,2012-10-10 04:53:00
11:53 PM,59.0,39.9,49,29.87,10.0,West,8.1,-,N/A,,Clear,260,2012-10-10 05:53:00